User: anonymous   Login
Location: Caltech
(34.1382°N, 118.1253°W)
Time: 07:32:06
(UTC-07:00)
Language:

Cosmos 2219 - Orbit

View from above orbital plane
View from above orbital plane
View from above satellite
View from above satellite

Ground track
Ground track

The orbit data is extracted from the following two-line orbital elements,

1 22219U 92076A   15150.02960173  .00000067  00000-0  60125-4 0  9991
2 22219 071.0581 322.5398 0016541 094.6529 265.6483 14.13543951162340
Epoch (UTC): 30 May 2015 00:42:37
Eccentricity: 0.0016541
inclination: 71.0581°
perigee height: 835 km
apogee height: 859 km
right ascension of ascending node: 322.5398°
argument of perigee: 94.6529°
revolutions per day: 14.13543951
mean anomaly at epoch: 265.6483°
orbit number at epoch: 16234

The dashed part of the orbit path shows where the satellite is in the earth's shadow,  

DLR